Date String (YYYY-MM-DD hh:mm:ss) UTC,Instrument flags,Ambient pressure (hPa),Sample flow (lpm),Bypass flow (lpm),Sample temperature (°C),Ambient temperature (°C),ASC tube jacket temperature (°C),LED temperature (°C),Box temperature (°C),Sample RH (%),Span deviation,Mass concentration (μg/m³),Mass concentration (μg/m³),Mass concentration (μg/m³)
DateTimeUTC,F1_M11,P_M11,Q1_M11,Q2_M11,T1_M11,T2_M11,T3_M11,T4_M11,T5_M11,U1_M11,ZSPAN_M11,X0_M11,X2_M11,X1_M11
2021-12-28 16:00:00,,0810.1,4.99,0.00,22.0,21.4,00.0,31.2,23.6,07.1,0000.0,0009.41,0001.28,0000.60
2021-12-28 16:01:00,,0810.1,5.01,0.00,22.0,21.4,00.0,31.2,23.5,07.2,0000.0,0008.75,0001.33,0000.59
2021-12-28 16:02:00,,0810.1,4.99,0.00,22.0,21.3,00.0,31.1,23.5,07.1,0000.0,0008.97,0001.44,0000.59
2021-12-28 16:03:00,,0810.2,5.01,0.00,21.9,21.2,00.0,31.1,23.5,07.1,0000.0,0008.74,0001.49,0000.59
2021-12-28 16:04:00,,0810.2,5.01,0.00,21.9,21.2,00.0,31.1,23.5,07.0,0000.0,0009.00,0001.59,0000.59
2021-12-28 16:05:00,,0810.2,5.01,0.00,21.9,21.3,00.0,31.1,23.5,07.0,0000.0,0009.44,0001.63,0000.58
2021-12-28 16:06:00,,0810.2,5.00,0.00,22.0,22.1,00.0,31.1,23.8,06.9,0000.0,0009.42,0001.62,0000.57
2021-12-28 16:07:00,,0810.2,4.99,0.00,22.2,23.0,00.0,31.2,24.1,06.8,0000.0,0009.97,0001.57,0000.56
2021-12-28 16:08:00,,0810.1,5.01,0.00,22.3,22.9,00.0,31.2,24.1,06.7,0000.0,0009.51,0001.59,0000.54
2021-12-28 16:09:00,,0810.1,5.00,0.00,22.3,22.6,00.0,31.2,24.0,06.7,0000.0,0009.27,0001.61,0000.52
2021-12-28 16:10:00,,0810.1,5.01,0.00,22.2,22.3,00.0,31.2,23.9,06.7,0000.0,0009.83,0001.61,0000.50
2021-12-28 16:11:00,,0810.1,4.99,0.00,22.2,22.1,00.0,31.2,23.8,06.8,0000.0,0009.55,0001.58,0000.49
2021-12-28 16:12:00,,0810.1,5.00,0.00,22.1,21.9,00.0,31.2,23.8,06.8,0000.0,0009.31,0001.57,0000.48
2021-12-28 16:13:00,,0810.1,5.01,0.00,22.1,21.8,00.0,31.2,23.7,06.9,0000.0,0008.72,0001.53,0000.48
2021-12-28 16:14:00,,0810.1,5.01,0.00,22.1,21.7,00.0,31.2,23.7,06.9,0000.0,0008.44,0001.49,0000.47
2021-12-28 16:15:00,,0810.1,5.00,0.00,22.1,21.6,00.0,31.2,23.6,06.8,0000.0,0008.86,0001.41,0000.46
2021-12-28 16:16:00,,0810.2,5.00,0.00,22.1,21.5,00.0,31.2,23.7,06.8,0000.0,0008.22,0001.35,0000.45
2021-12-28 16:17:00,,0810.2,5.00,0.00,22.0,21.5,00.0,31.1,23.6,06.9,0000.0,0008.25,0001.39,0000.45
2021-12-28 16:18:00,,0810.2,5.00,0.00,22.0,21.4,00.0,31.1,23.6,06.9,0000.0,0007.61,0001.39,0000.45
2021-12-28 16:19:00,,0810.1,5.00,0.00,22.0,21.4,00.0,31.1,23.6,06.9,0000.0,0007.94,0001.34,0000.45
2021-12-28 16:20:00,,0810.1,5.01,0.00,22.0,21.4,00.0,31.1,23.6,06.8,0000.0,0008.57,0001.35,0000.45
2021-12-28 16:21:00,,0810.1,4.99,0.00,22.0,21.4,00.0,31.1,23.6,06.9,0000.0,0008.14,0001.46,0000.46
2021-12-28 16:22:00,,0810.1,5.02,0.00,22.0,21.4,00.0,31.1,23.6,06.9,0000.0,0008.21,0001.46,0000.45
2021-12-28 16:23:00,,0810.1,5.00,0.00,22.0,21.4,00.0,31.1,23.6,06.8,0000.0,0008.50,0001.44,0000.44
2021-12-28 16:24:00,,0810.2,4.99,0.00,22.0,21.4,00.0,31.1,23.5,06.8,0000.0,0008.62,0001.42,0000.44
2021-12-28 16:25:00,,0810.1,5.00,0.00,21.9,21.3,00.0,31.1,23.5,06.8,0000.0,0008.75,0001.47,0000.44
2021-12-28 16:26:00,,0810.1,5.00,0.00,21.9,21.3,00.0,31.0,23.5,06.9,0000.0,0008.96,0001.45,0000.43
2021-12-28 16:27:00,,0810.1,5.00,0.00,21.9,21.3,00.0,31.0,23.5,06.8,0000.0,0008.97,0001.44,0000.44
2021-12-28 16:28:00,,0810.1,5.00,0.00,22.0,21.9,00.0,31.1,23.7,06.7,0000.0,0009.01,0001.41,0000.43
2021-12-28 16:29:00,,0810.2,5.00,0.00,22.1,22.9,00.0,31.1,24.1,06.6,0000.0,0009.16,0001.44,0000.44
2021-12-28 16:30:00,,0810.2,5.00,0.00,22.3,23.2,00.0,31.1,24.3,06.6,0000.0,0008.83,0001.46,0000.44
2021-12-28 16:31:00,,0810.2,5.00,0.00,22.4,23.0,00.0,31.2,24.3,06.7,0000.0,0008.30,0001.44,0000.43
2021-12-28 16:32:00,,0810.2,5.01,0.00,22.4,22.8,00.0,31.2,24.2,07.0,0000.0,0008.11,0001.42,0000.43
2021-12-28 16:33:00,,0810.3,4.99,0.00,22.4,22.6,00.0,31.2,24.2,07.1,0000.0,0008.03,0001.44,0000.45
2021-12-28 16:34:00,,0810.3,5.01,0.00,22.4,22.4,00.0,31.2,24.1,07.0,0000.0,0007.63,0001.41,0000.46
2021-12-28 16:35:00,,0810.3,4.99,0.00,22.4,22.3,00.0,31.2,24.1,07.0,0000.0,0007.28,0001.36,0000.49
2021-12-28 16:36:00,,0810.3,5.00,0.00,22.4,22.2,00.0,31.3,24.1,07.1,0000.0,0006.66,0001.32,0000.51
2021-12-28 16:37:00,,0810.4,4.99,0.00,22.4,22.1,00.0,31.3,24.1,07.1,0000.0,0005.58,0001.37,0000.52
2021-12-28 16:38:00,,0810.3,5.00,0.00,22.4,22.0,00.0,31.3,24.1,07.2,0000.0,0006.21,0001.47,0000.54
2021-12-28 16:39:00,,0810.3,4.99,0.00,22.4,22.0,00.0,31.3,24.0,07.1,0000.0,0006.93,0001.56,0000.56
2021-12-28 16:40:00,,0810.3,5.01,0.00,22.3,21.9,00.0,31.3,24.0,07.1,0000.0,0007.91,0001.63,0000.58
2021-12-28 16:41:00,,0810.3,5.00,0.00,22.3,21.9,00.0,31.3,24.0,07.2,0000.0,0008.99,0001.67,0000.60
2021-12-28 16:42:00,,0810.4,4.99,0.00,22.3,21.8,00.0,31.3,24.0,07.2,0000.0,0009.40,0001.68,0000.63
2021-12-28 16:43:00,,0810.4,5.00,0.00,22.3,21.8,00.0,31.3,24.0,07.2,0000.0,0009.84,0001.67,0000.64
2021-12-28 16:44:00,,0810.3,5.00,0.00,22.3,21.8,00.0,31.3,24.0,07.3,0000.0,0010.80,0001.66,0000.64
2021-12-28 16:45:00,,0810.2,5.00,0.00,22.3,21.8,00.0,31.3,24.0,07.3,0000.0,0011.68,0001.73,0000.67
2021-12-28 16:46:00,,0810.2,5.00,0.00,22.3,21.8,00.0,31.3,24.0,07.3,0000.0,0011.88,0001.82,0000.68
2021-12-28 16:47:00,,0810.2,4.99,0.00,22.3,21.8,00.0,31.3,24.0,07.4,0000.0,0012.02,0001.89,0000.69
2021-12-28 16:48:00,,0810.2,5.00,0.00,22.3,21.8,00.0,31.3,24.0,07.4,0000.0,0012.06,0001.88,0000.70
2021-12-28 16:49:00,,0810.3,5.01,0.00,22.3,21.8,00.0,31.3,24.0,07.4,0000.0,0012.66,0001.98,0000.72
2021-12-28 16:50:00,,0810.2,5.00,0.00,22.3,21.7,00.0,31.3,24.0,07.4,0000.0,0012.58,0002.03,0000.72
2021-12-28 16:51:00,,0810.2,4.98,0.00,22.3,21.7,00.0,31.3,24.0,07.5,0000.0,0011.54,0001.96,0000.72
2021-12-28 16:52:00,,0810.2,5.00,0.00,22.3,21.7,00.0,31.3,24.0,07.4,0000.0,0010.68,0001.93,0000.74
2021-12-28 16:53:00,,0810.2,5.00,0.00,22.3,21.8,00.0,31.3,24.0,07.4,0000.0,0009.88,0001.95,0000.74
2021-12-28 16:54:00,,0810.1,5.01,0.00,22.3,21.8,00.0,31.3,24.0,07.4,0000.0,0009.66,0002.04,0000.75
2021-12-28 16:55:00,,0810.1,5.00,0.00,22.3,21.8,00.0,31.3,24.0,07.4,0000.0,0009.65,0002.11,0000.76
2021-12-28 16:56:00,,0810.1,4.99,0.00,22.4,21.8,00.0,31.3,24.0,07.5,0000.0,0008.73,0002.07,0000.75
2021-12-28 16:57:00,,0810.1,5.00,0.00,22.3,21.8,00.0,31.3,24.0,07.5,0000.0,0008.51,0002.03,0000.74
2021-12-28 16:58:00,,0810.1,5.00,0.00,22.3,21.8,00.0,31.3,24.0,07.5,0000.0,0008.38,0002.05,0000.73
2021-12-28 16:59:00,,0810.2,4.99,0.00,22.3,21.8,00.0,31.3,24.0,07.6,0000.0,0008.40,0002.06,0000.73
